TimeCST,TemperatureF,Dew PointF,Humidity,Sea Level PressureIn,VisibilityMPH,Wind Direction,Wind SpeedMPH,Gust SpeedMPH,PrecipitationIn,Events,Conditions,WindDirDegrees,DateUTC
12:15 AM,30.2,15.8,55,30.27,10.0,North,12.7,-,N/A,,Partly Cloudy,350,2013-01-21 06:15:00
12:35 AM,28.4,14.0,55,30.27,10.0,North,11.5,-,N/A,,Partly Cloudy,350,2013-01-21 06:35:00
12:55 AM,28.4,14.0,55,30.26,10.0,North,8.1,-,N/A,,Partly Cloudy,350,2013-01-21 06:55:00
1:15 AM,26.6,14.0,59,30.27,10.0,North,6.9,-,N/A,,Clear,360,2013-01-21 07:15:00
1:35 AM,26.6,14.0,59,30.28,10.0,North,5.8,-,N/A,,Clear,360,2013-01-21 07:35:00
1:55 AM,26.6,14.0,59,30.29,10.0,North,5.8,-,N/A,,Clear,350,2013-01-21 07:55:00
2:15 AM,26.6,14.0,59,30.30,10.0,North,6.9,-,N/A,,Clear,360,2013-01-21 08:15:00
2:55 AM,24.8,15.8,69,30.31,10.0,NNW,5.8,-,N/A,,Clear,330,2013-01-21 08:55:00
3:15 AM,24.8,15.8,69,30.32,10.0,NNW,6.9,-,N/A,,Clear,330,2013-01-21 09:15:00
3:35 AM,24.8,15.8,69,30.32,10.0,NNW,9.2,-,N/A,,Clear,340,2013-01-21 09:35:00
3:55 AM,24.8,14.0,64,30.32,10.0,North,8.1,-,N/A,,Clear,350,2013-01-21 09:55:00
4:15 AM,24.8,14.0,64,30.32,10.0,NNW,10.4,-,N/A,,Clear,340,2013-01-21 10:15:00
4:35 AM,24.8,12.2,59,30.33,10.0,NNW,8.1,-,N/A,,Clear,340,2013-01-21 10:35:00
4:55 AM,24.8,12.2,59,30.33,10.0,North,8.1,-,N/A,,Clear,350,2013-01-21 10:55:00
5:15 AM,23.0,12.2,63,30.33,10.0,North,10.4,-,N/A,,Clear,10,2013-01-21 11:15:00
5:35 AM,23.0,14.0,68,30.33,10.0,NNW,6.9,-,N/A,,Clear,340,2013-01-21 11:35:00
6:54 AM,21.2,12.2,68,30.35,10.0,North,8.1,-,N/A,,Clear,350,2013-01-21 12:54:00
7:51 AM,21.2,12.2,68,30.35,10.0,NNW,4.6,-,N/A,,Partly Cloudy,340,2013-01-21 13:51:00
8:52 AM,23.0,10.4,59,30.36,10.0,North,9.2,-,N/A,,Clear,360,2013-01-21 14:52:00
9:47 AM,24.8,10.4,54,30.38,10.0,North,5.8,-,N/A,,Clear,350,2013-01-21 15:47:00
10:47 AM,28.4,8.6,43,30.38,10.0,NW,8.1,-,N/A,,Clear,320,2013-01-21 16:47:00
11:48 AM,32.0,8.6,38,30.36,10.0,North,10.4,-,N/A,,Clear,350,2013-01-21 17:48:00
12:53 PM,33.8,8.6,35,30.32,10.0,NNW,13.8,-,N/A,,Clear,330,2013-01-21 18:53:00
1:58 PM,35.6,10.4,35,30.31,10.0,NNW,9.2,-,N/A,,Clear,340,2013-01-21 19:58:00
2:45 PM,35.6,12.2,38,30.31,10.0,NNW,10.4,16.1,N/A,,Partly Cloudy,330,2013-01-21 20:45:00
3:48 PM,35.6,12.2,38,30.31,10.0,NNW,10.4,-,N/A,,Partly Cloudy,330,2013-01-21 21:48:00
4:49 PM,32.0,14.0,48,30.31,10.0,NW,9.2,-,N/A,,Partly Cloudy,320,2013-01-21 22:49:00
6:50 PM,28.4,14.0,55,30.30,10.0,North,4.6,-,N/A,,Clear,10,2013-01-22 00:50:00
7:55 PM,26.6,14.0,59,30.30,10.0,North,6.9,-,N/A,,Clear,10,2013-01-22 01:55:00
8:15 PM,26.6,14.0,59,30.31,10.0,North,6.9,-,N/A,,Clear,10,2013-01-22 02:15:00
8:35 PM,26.6,14.0,59,30.32,10.0,North,8.1,-,N/A,,Clear,360,2013-01-22 02:35:00
8:45 PM,24.8,14.0,64,30.32,10.0,North,6.9,-,N/A,,Clear,360,2013-01-22 02:45:00
8:55 PM,24.8,14.0,64,30.32,10.0,North,5.8,-,N/A,,Clear,360,2013-01-22 02:55:00
9:15 PM,24.8,14.0,64,30.33,10.0,North,5.8,-,N/A,,Clear,10,2013-01-22 03:15:00
9:35 PM,24.8,14.0,64,30.33,10.0,North,4.6,-,N/A,,Clear,10,2013-01-22 03:35:00
9:55 PM,23.0,14.0,68,30.33,10.0,North,3.5,-,N/A,,Clear,10,2013-01-22 03:55:00
10:15 PM,23.0,12.2,63,30.33,10.0,Calm,Calm,-,N/A,,Clear,0,2013-01-22 04:15:00
10:35 PM,23.0,14.0,68,30.32,10.0,Calm,Calm,-,N/A,,Clear,0,2013-01-22 04:35:00
10:55 PM,21.2,14.0,74,30.32,10.0,Calm,Calm,-,N/A,,Clear,0,2013-01-22 04:55:00
11:15 PM,21.2,12.2,68,30.32,10.0,Calm,Calm,-,N/A,,Clear,0,2013-01-22 05:15:00
11:35 PM,23.0,12.2,63,30.32,10.0,NE,3.5,-,N/A,,Clear,40,2013-01-22 05:35:00
11:55 PM,23.0,10.4,59,30.33,10.0,NNE,3.5,-,N/A,,Partly Cloudy,20,2013-01-22 05:55:00